Regional Weather Roundup
Issued by NWS

Home | Current Version | Previous Version | Text Only | Print | Product List | Glossary Off
Versions: 1 2 3 4 5 6 7 8 9 10 11 12 13 14 15 16 17 18 19 20 21 22 23 24 25 26 27 28 29 30 31 32 33 34 35 36 37 38 39 40 41 42 43 44 45 46 47 48 49 50

199
ASUS43 KLMK 121702
RWRKY
KENTUCKY REGIONAL WEATHER ROUNDUP
NATIONAL WEATHER SERVICE LOUISVILLE KY
1200 PM EST FRI FEB 12 2016

NOTE "FAIR" INDICATES FEW OR NO CLOUDS BELOW 12,000 FEET
WITH NO SIGNIFICANT WEATHER AND/OR OBSTRUCTIONS TO VISIBILITY.

KYZ001>023-026-027-061>063-070>075-121800-
WESTERN AND SOUTH CENTRAL KENTUCKY

CITY           SKY/WX    TMP DP  RH WIND       PRES   REMARKS
PADUCAH        CLOUDY    34  26  72 NW7       30.26R WCI  28
HENDERSON      CLOUDY    28  19  69 NW5       30.26R WCI  23
OWENSBORO      PTSUNNY   28  23  81 W6        30.25S WCI  22
HOPKINSVILLE   NOT AVBL
BOWLING GREEN  CLOUDY    31  26  82 VRB3      30.23S
GLASGOW        NOT AVBL
$$

KYZ024-025-028>034-038-045-046-053-121800-
NORTH CENTRAL KENTUCKY

CITY           SKY/WX    TMP DP  RH WIND       PRES   REMARKS
LOUISVILLE/SDF CLOUDY    31  19  61 W7        30.19F WCI  24
LOUISVILLE/LOU CLOUDY    30  19  63 SW7       30.19F WCI  23
FORT KNOX      PTSUNNY   32  21  64 W7        30.17F WCI  26
$$

KYZ035>037-039>044-047>052-055>060-089>105-121800-
NORTHEAST KENTUCKY

CITY           SKY/WX    TMP DP  RH WIND       PRES   REMARKS
LEXINGTON      CLOUDY    29  20  69 W7        30.14F WCI  22
COVINGTON      FLURRIES  25  17  72 SW10G17   30.14F WCI  15
FRANKFORT      CLOUDY    30  18  60 VRB7      30.15F WCI  23
$$

KYZ054-064>069-076>088-106>120-121800-
SOUTHEAST KENTUCKY

CITY           SKY/WX    TMP DP  RH WIND       PRES   REMARKS
JACKSON        LGT SNOW  26  17  68 NW3       30.13R
LONDON         SNOW      27  23  85 W6        30.14S VSB 1/2 WCI  20
SOMERSET       NOT AVBL
MIDDLESBORO    NOT AVBL
MONTICELLO     FLURRIES  30  26  85 W3        30.19R
$$





USA.gov is the U.S. government's official web portal to all federal, state and local government web resources and services.